Theta_e
301 301 301 301 301 301 301 301 301 301 301 301 302 302 302 302 303 303 303 303 303 303 303 303 303 303 304 304 304 304 305 305 305 306 308 312 317 317 315 313 309 308 309 308 311 314 315 318 320 320 319 318 315 316 317 318 318 318 318 316 316 317 317 319 319 319 319 320 320 320 320 320 320 321 321 322 322 326 331 333 339 341 341 340 344 350 350 349
301 301 300 301 301 301 301 301 301 301 301 301 301 301 302 302 302 303 303 303 303 303 303 303 303 304 303 304 304 304 304 305 305 307 308 312 316 314 312 312 309 309 308 308 314 318 318 319 320 319 318 317 316 315 317 318 318 318 318 316 316 318 319 320 320 319 319 319 320 320 320 320 319 320 321 320 321 326 329 333 341 342 343 343 346 350 349 349
301 300 300 300 300 301 301 301 300 300 300 300 301 301 301 301 302 302 302 303 303 303 303 303 303 303 303 304 303 304 304 306 310 310 310 313 313 312 312 312 310 309 308 310 317 319 318 319 319 319 318 317 316 315 317 318 317 318 318 316 317 319 320 320 320 319 319 318 319 320 319 320 319 320 321 320 321 323 325 330 340 342 344 346 347 349 349 348
301 300 300 300 300 300 300 300 300 300 300 300 300 300 301 301 301 301 302 302 302 303 303 303 303 303 303 303 303 304 304 309 315 315 316 316 312 312 313 312 310 308 308 314 319 320 319 319 319 319 317 317 317 316 317 318 317 317 317 317 318 319 319 320 320 319 319 319 319 319 319 319 319 320 320 321 320 320 324 330 339 342 343 346 346 348 348 348
300 300 300 300 300 300 300 300 300 300 300 300 300 300 300 301 301 301 301 301 302 302 302 302 302 303 303 303 304 303 305 314 321 320 319 316 312 312 312 311 310 308 311 317 320 319 319 319 319 318 317 318 318 316 317 317 318 317 317 318 318 319 319 320 320 319 319 318 318 318 318 318 319 320 319 321 319 320 332 338 341 340 341 344 346 348 348 347
299 299 299 300 300 300 300 300 300 300 299 299 299 300 300 300 300 301 301 301 301 301 301 302 302 302 303 303 303 303 308 316 320 322 319 314 313 313 312 311 308 309 316 320 321 320 319 319 319 318 317 317 318 317 317 317 318 317 317 319 318 319 319 320 319 319 319 317 318 318 318 318 319 320 319 321 319 322 335 340 341 338 339 344 345 347 347 348
299 299 299 299 299 299 299 299 300 300 299 299 299 299 299 300 300 301 301 301 301 301 301 301 302 302 302 303 303 306 312 314 315 320 318 314 314 313 313 311 307 312 319 321 322 321 319 319 319 318 317 316 317 317 317 317 317 316 317 318 318 318 319 319 319 318 318 317 318 317 318 318 318 318 318 321 319 324 336 339 340 337 341 346 346 347 348 349
299 299 299 299 299 298 299 299 299 299 299 299 299 299 299 300 300 300 301 301 301 301 301 301 301 302 302 302 304 311 315 315 319 319 314 313 314 313 312 310 308 312 317 320 321 320 319 318 318 318 317 317 317 317 317 317 317 317 317 318 318 319 319 319 318 318 318 317 317 317 318 318 318 319 318 320 318 323 337 339 339 340 343 346 348 348 349 349
299 298 298 298 298 298 298 298 299 299 299 299 299 299 300 300 300 301 301 301 301 301 301 301 301 301 302 301 306 314 317 320 323 319 312 311 313 313 312 310 308 310 316 320 319 318 318 317 318 318 317 317 316 317 317 317 316 317 317 317 318 318 319 319 318 318 318 317 318 317 318 317 318 318 317 320 317 324 338 339 340 343 344 346 347 349 348 349
298 298 298 298 298 298 298 298 298 299 299 299 299 299 299 300 300 300 301 301 301 301 301 301 301 301 302 304 310 315 316 320 321 317 312 308 311 312 311 310 308 312 318 319 318 317 317 316 317 317 316 316 316 316 317 317 317 318 318 318 318 318 318 318 318 318 318 318 318 317 317 318 318 318 317 319 317 327 340 340 339 340 342 344 346 348 347 347
298 298 298 298 298 298 298 298 298 299 299 299 299 299 299 299 300 300 300 301 301 301 301 300 301 301 301 307 314 315 313 318 319 319 314 308 311 312 312 312 311 315 319 318 317 316 316 316 316 316 315 315 315 316 317 317 317 317 318 318 318 318 318 318 318 319 318 318 318 318 317 317 318 317 317 319 318 327 338 341 340 337 337 340 344 347 347 347
298 298 298 298 298 298 298 298 298 298 299 299 299 299 299 299 299 300 300 301 300 301 301 300 302 301 301 308 313 313 311 314 317 319 316 312 312 313 315 315 314 317 318 316 316 315 315 315 315 315 315 315 315 315 316 316 317 317 317 316 317 318 317 317 317 318 318 318 318 317 316 316 317 317 317 319 319 323 330 335 339 338 336 339 343 346 347 347
298 298 298 298 298 298 298 298 298 298 298 299 299 299 299 299 300 300 300 301 300 301 300 301 302 300 305 312 314 311 311 311 315 319 318 315 315 316 317 316 315 317 316 316 316 314 315 315 314 315 314 315 315 316 316 317 316 316 317 316 316 316 316 317 318 317 317 318 318 317 314 314 317 317 318 319 319 323 327 330 335 338 338 339 343 345 346 347
298 298 298 298 298 298 298 298 298 298 298 299 299 299 299 299 299 300 300 301 300 301 300 302 302 301 308 315 312 312 312 312 316 317 317 316 316 317 318 317 316 316 316 317 317 315 315 314 314 314 314 315 315 317 317 317 316 316 316 316 315 313 314 317 318 317 317 317 318 317 312 314 317 317 319 318 319 322 326 333 335 337 338 338 342 344 345 346
298 298 298 298 298 298 298 298 298 298 298 298 298 298 299 299 299 299 300 300 300 301 301 302 301 304 313 315 311 313 311 312 315 315 316 316 317 318 317 317 316 317 317 317 317 316 315 314 314 314 314 315 315 316 317 316 316 316 314 313 315 313 314 318 318 317 317 317 318 316 312 314 316 317 319 318 320 321 324 335 336 334 334 334 338 341 340 340
298 298 298 298 298 298 298 298 298 298 298 298 298 298 299 299 299 299 300 300 301 302 302 307 307 306 314 316 314 314 310 311 312 314 316 316 317 317 316 317 316 317 317 317 317 316 315 314 314 314 315 315 315 315 316 316 315 316 315 312 314 314 314 316 318 318 318 318 317 316 314 315 317 318 320 318 320 320 324 336 336 333 332 333 335 337 336 334
298 298 298 298 298 298 298 298 298 298 298 298 298 298 299 299 300 300 300 300 301 303 305 313 317 311 313 314 314 314 312 311 310 312 315 315 317 317 316 316 316 317 317 317 316 315 314 314 313 313 314 315 315 315 315 313 313 315 315 313 314 315 315 315 317 319 319 317 317 317 316 316 317 318 320 319 320 320 325 335 336 335 334 335 336 336 335 333
298 298 298 297 298 298 298 298 297 298 298 298 298 299 299 299 299 299 301 303 305 308 309 313 317 315 315 314 314 315 314 312 310 311 313 315 316 316 316 316 316 317 317 317 316 315 314 314 314 314 314 315 316 316 313 313 314 315 315 314 314 315 316 315 316 318 318 317 317 317 316 316 317 318 320 320 322 320 324 334 335 335 336 336 338 339 337 335
297 298 297 297 298 298 298 297 297 298 298 298 298 298 300 305 307 304 304 308 311 314 315 315 314 314 315 314 313 315 315 314 312 311 312 313 314 315 316 315 316 317 316 316 316 315 314 314 314 313 314 315 315 316 315 315 317 317 317 316 315 314 316 317 318 318 318 317 316 316 315 317 317 318 319 320 322 320 323 334 335 334 336 335 336 338 337 336
297 297 297 297 298 297 297 297 297 297 297 298 298 299 307 316 319 315 311 313 315 315 315 316 314 312 313 313 314 316 316 316 314 312 312 312 313 314 315 316 317 318 317 316 315 315 314 313 313 313 314 315 316 317 317 317 317 318 318 317 316 316 316 318 318 317 318 317 316 317 316 317 317 317 319 319 320 319 323 332 333 333 334 333 334 335 335 335
297 297 297 297 297 297 297 297 297 297 297 298 298 302 313 317 315 316 315 315 316 315 314 314 314 314 314 313 314 317 316 316 316 314 313 312 312 313 315 316 317 317 317 317 316 316 314 313 313 314 315 315 317 318 318 318 318 318 317 316 317 316 316 319 319 318 318 317 316 318 316 316 317 317 318 318 319 319 320 331 334 332 331 331 333 332 332 334
297 297 297 297 297 296 297 297 297 297 297 298 298 302 311 313 310 311 311 312 314 314 315 314 313 314 314 313 314 316 316 315 315 315 315 313 312 313 315 315 317 317 317 317 317 316 314 314 314 315 316 316 317 317 318 318 318 318 318 317 316 316 316 317 318 319 318 317 316 317 316 316 318 317 318 318 319 320 319 327 332 332 331 331 332 332 331 332
297 296 296 296 296 296 297 297 297 298 298 298 298 303 310 310 308 310 310 311 311 312 314 315 314 313 313 313 314 314 315 315 315 315 315 313 313 314 315 316 316 317 317 316 317 316 314 314 314 315 315 316 317 316 318 319 318 319 319 317 316 316 315 314 317 319 318 318 318 317 316 316 318 318 318 318 318 319 318 321 328 331 331 332 332 331 329 329
296 296 296 296 296 297 297 297 297 298 298 298 299 306 310 307 307 310 311 312 312 312 313 314 314 313 312 312 313 313 313 314 314 316 315 314 314 314 315 316 315 316 317 316 316 316 316 316 316 316 315 316 316 316 318 320 319 320 320 318 316 316 315 314 317 318 318 319 318 318 316 315 317 317 317 319 319 318 319 319 321 325 326 328 332 331 328 328
296 296 296 296 297 297 297 301 304 305 305 304 306 308 307 307 308 310 312 313 314 314 312 314 313 312 313 312 312 313 312 313 313 315 316 314 314 314 315 317 315 315 316 316 317 316 317 318 318 316 315 315 316 316 318 319 319 319 319 318 316 316 317 317 318 317 315 315 317 317 314 314 316 317 317 318 319 318 319 319 319 320 320 323 331 331 329 330
295 296 296 296 297 296 300 311 311 308 309 309 310 310 307 309 310 310 314 316 315 314 313 314 312 312 313 312 313 313 312 312 312 313 316 315 315 315 315 316 316 315 316 317 317 317 317 318 318 317 316 315 316 317 318 319 318 316 317 318 317 317 317 317 317 316 313 313 317 318 314 313 315 316 318 317 318 318 318 319 319 320 320 319 329 332 332 333
295 296 296 296 297 296 302 312 309 305 309 309 309 308 307 310 309 309 316 316 313 315 313 312 311 312 313 313 313 312 311 312 312 311 314 316 315 316 315 315 316 315 316 317 315 316 318 317 317 316 316 317 316 317 317 318 316 315 317 318 317 317 316 316 316 315 314 315 316 317 314 312 312 315 318 319 318 318 318 319 318 319 320 318 325 332 333 334
295 296 296 296 297 296 298 304 304 305 310 310 309 308 307 310 309 311 319 318 315 315 314 312 312 313 313 314 313 312 312 313 312 311 312 315 315 315 316 315 316 315 316 316 313 316 318 317 317 317 316 317 317 317 317 317 316 315 317 317 317 317 317 317 316 315 316 315 313 314 314 313 312 315 319 319 318 318 318 319 319 320 320 318 319 328 332 334
296 296 297 296 296 298 300 299 299 304 308 309 308 307 308 308 309 314 319 319 317 314 315 313 312 313 314 314 313 312 313 313 313 312 311 314 315 315 316 315 316 316 315 315 314 316 318 317 317 317 317 317 317 317 316 315 316 316 317 317 316 317 316 317 316 314 314 314 312 313 314 312 311 315 317 318 318 319 320 318 322 326 324 325 322 324 332 334
296 296 297 296 296 303 305 301 299 302 305 307 307 306 309 310 313 316 316 317 315 314 315 313 312 314 314 314 313 313 314 314 314 313 311 313 315 314 315 316 316 316 316 315 314 316 318 318 318 317 318 318 317 316 316 316 316 316 316 316 316 316 316 317 316 314 313 313 313 313 314 313 312 313 316 319 322 325 326 324 327 330 328 329 327 324 330 332
296 296 296 296 297 302 304 304 305 306 307 306 305 306 311 313 316 317 316 315 313 314 314 313 313 314 313 314 314 313 314 314 314 313 311 312 314 314 315 316 315 315 316 315 314 315 317 317 318 318 318 318 317 316 317 317 317 317 316 315 315 315 315 315 314 314 313 313 313 313 314 313 311 313 319 323 324 326 327 326 328 329 329 330 329 326 329 331
296 296 296 296 297 298 302 308 309 309 309 306 304 308 313 315 314 315 317 313 312 314 313 313 314 313 314 314 314 314 313 314 315 313 311 312 313 313 313 314 314 314 314 315 315 315 315 316 317 318 318 318 317 315 316 317 316 317 315 314 314 313 313 313 312 313 313 313 313 313 314 314 313 318 325 326 325 326 329 328 329 330 331 332 330 328 330 332
296 296 296 297 297 296 301 309 310 308 307 304 306 312 315 315 314 314 316 313 312 314 313 314 314 313 314 313 313 315 313 314 314 313 313 312 312 313 312 313 314 314 314 315 315 314 314 316 316 317 317 317 317 315 314 314 315 316 314 314 313 312 313 314 313 313 314 314 314 315 315 312 314 323 328 328 328 329 330 331 331 332 333 333 333 332 333 333
296 296 297 297 298 297 298 306 309 306 305 306 310 314 315 316 316 313 313 313 313 313 313 314 313 312 313 312 313 315 314 314 314 314 313 312 311 312 311 312 313 315 315 315 315 315 314 315 315 316 317 317 316 315 315 315 315 316 316 315 314 312 313 313 313 314 315 315 316 317 316 313 316 325 328 327 327 329 331 332 333 333 334 333 332 331 331 331
297 299 300 299 300 299 298 303 305 302 305 311 312 314 316 316 316 313 312 312 312 313 313 313 312 312 312 312 313 315 315 314 314 315 314 313 312 312 312 312 313 314 315 314 315 316 314 314 316 316 317 317 316 315 317 316 315 316 317 315 314 313 313 313 314 315 315 316 316 316 316 319 323 325 326 326 326 327 330 332 333 333 334 333 331 330 329 329
301 306 305 303 304 302 299 300 301 301 308 314 313 313 315 314 314 313 311 311 312 312 312 312 311 311 311 312 312 314 315 315 314 315 314 314 313 312 313 313 313 313 314 314 315 316 314 315 317 317 317 317 316 316 316 316 315 316 315 313 314 315 315 314 314 315 315 316 316 315 316 323 327 326 325 326 326 326 328 330 331 333 333 332 330 329 327 328
305 311 311 309 310 308 303 301 302 304 310 315 314 314 314 312 313 311 310 311 311 311 311 310 310 311 310 311 312 313 315 315 315 314 314 314 313 313 313 314 314 313 314 315 316 316 316 316 317 317 317 317 318 317 316 316 316 315 314 314 316 316 315 315 314 315 316 316 316 315 315 321 325 326 326 327 327 327 328 328 330 332 332 330 329 327 327 327
306 312 313 314 313 312 309 305 305 308 311 314 314 315 313 311 312 310 310 310 310 311 310 309 311 311 310 311 313 313 314 314 314 314 314 314 313 314 313 314 315 314 314 315 316 316 316 314 316 317 317 317 318 317 316 316 316 315 316 317 316 315 314 314 313 315 316 317 317 315 314 321 325 325 326 328 328 328 327 327 329 331 331 331 330 329 327 326
308 313 314 313 311 311 310 306 307 310 310 311 313 313 312 311 311 310 310 309 309 309 308 309 311 311 311 312 313 314 314 314 314 314 314 314 315 317 315 314 316 315 316 316 315 317 317 315 316 317 317 317 317 316 314 315 316 315 316 317 317 316 314 314 314 315 315 316 317 315 316 324 327 326 327 328 327 327 327 327 328 330 331 331 330 330 328 327
309 314 314 311 309 311 309 306 308 310 309 310 311 311 311 310 310 309 308 309 309 308 308 310 310 311 312 312 312 314 314 314 315 315 315 314 315 317 316 315 316 315 316 316 316 316 317 317 316 317 316 316 315 316 315 315 315 314 314 314 315 316 316 316 316 315 314 315 317 316 319 326 327 326 327 327 326 326 326 328 329 329 330 330 329 329 329 329
311 314 314 312 310 310 308 307 309 310 309 310 311 310 310 310 310 310 309 309 309 308 310 310 310 312 312 312 313 314 314 314 314 315 316 316 317 318 318 317 316 316 316 316 316 316 316 317 317 316 316 315 315 316 316 316 316 315 314 313 314 315 315 316 317 317 317 317 317 317 321 326 327 325 327 326 326 326 327 328 328 328 328 328 328 328 327 328
313 314 314 314 310 308 308 309 310 310 310 311 311 310 310 310 310 310 310 310 308 308 310 310 310 311 311 312 313 313 313 314 314 314 315 317 318 319 319 319 318 317 316 315 315 317 317 317 316 316 316 316 317 317 316 317 316 316 316 315 315 315 314 314 317 320 319 317 317 317 320 325 326 326 326 325 325 326 327 328 327 326 326 326 326 326 326 327
313 313 315 315 311 309 310 311 311 311 311 311 311 311 310 310 309 309 310 310 309 308 309 310 310 310 310 312 312 312 314 314 313 314 314 316 318 319 319 319 319 318 318 318 318 317 317 317 316 316 316 316 317 317 317 316 315 316 316 316 316 316 315 315 317 319 318 316 317 318 320 325 326 325 325 325 325 325 325 325 325 325 324 324 324 324 325 325
312 312 314 314 312 313 315 314 312 311 311 311 312 312 310 310 310 309 309 310 310 310 310 310 311 310 310 311 311 312 313 313 314 314 315 317 318 319 319 318 318 319 320 321 321 319 317 316 316 317 317 316 317 318 318 317 316 316 316 318 317 316 319 320 319 319 318 317 318 319 322 325 325 325 325 325 325 324 323 323 323 322 322 322 322 323 323 323
312 311 313 314 314 315 316 315 313 312 311 312 312 312 311 311 310 310 311 311 311 311 311 312 312 311 311 311 311 312 311 313 314 314 316 318 318 319 320 319 319 319 320 323 323 321 320 319 317 318 318 318 318 319 319 319 319 318 318 320 320 320 322 322 320 319 319 319 320 321 323 325 326 325 325 324 322 322 321 321 321 320 320 320 321 321 321 321
313 312 313 314 314 315 315 314 314 313 311 311 312 312 311 311 311 311 311 311 312 312 312 312 312 312 312 311 311 311 310 312 312 313 315 318 319 319 319 319 319 319 320 322 322 321 321 322 320 319 320 321 320 320 320 320 320 321 322 322 323 324 324 323 321 322 323 323 324 323 324 326 326 324 323 321 320 319 319 319 319 319 318 318 319 320 320 320
313 312 313 313 313 314 314 314 314 312 311 311 311 311 311 311 311 311 311 310 311 311 311 311 311 311 312 311 311 312 312 312 312 312 314 317 319 319 318 318 319 320 319 320 321 321 321 321 320 320 322 322 320 319 320 320 321 323 324 324 324 324 325 325 324 324 324 323 324 325 326 327 325 322 320 319 318 317 317 317 316 316 316 316 317 318 318 318
312 312 313 313 312 312 312 313 312 312 311 311 311 311 311 311 311 311 311 310 310 311 310 311 311 310 310 311 311 312 312 312 313 313 313 316 318 319 318 318 319 319 318 319 321 321 321 321 321 322 322 321 320 320 320 321 321 322 322 323 323 322 323 325 325 325 324 324 324 326 327 326 322 319 317 317 316 315 315 315 314 314 313 313 314 315 315 315
312 312 312 312 312 312 311 312 311 311 311 311 311 311 312 312 311 311 311 310 310 311 310 311 311 310 310 310 311 312 312 312 314 316 316 317 319 319 319 320 321 320 319 320 321 321 322 321 321 322 322 321 321 320 321 321 321 320 320 320 321 321 322 323 324 324 324 325 325 325 323 320 318 316 315 315 315 314 313 312 312 311 311 311 311 312 312 312
312 312 312 311 312 312 312 311 311 311 311 310 311 311 311 312 311 311 312 311 311 311 311 311 311 310 310 311 311 312 313 314 316 317 316 316 317 318 319 320 321 320 319 320 320 321 320 320 321 321 320 321 321 320 320 321 320 318 317 317 319 320 321 322 322 322 324 325 325 324 321 318 315 314 314 313 312 312 311 310 310 309 309 309 309 309 309 309
312 312 311 311 311 310 311 311 310 311 310 310 310 311 311 311 311 311 312 311 312 312 311 311 311 311 311 311 311 312 313 314 315 315 315 315 315 316 317 319 319 318 317 320 320 319 319 320 320 320 320 320 320 320 320 320 319 317 315 315 317 319 320 320 319 319 321 323 324 324 322 318 314 313 312 310 309 309 308 308 308 308 307 307 307 307 307 307
312 311 311 311 310 309 309 310 310 310 310 310 311 311 311 311 311 311 310 310 311 312 311 311 311 311 312 312 312 313 312 312 313 313 314 314 314 315 315 317 317 316 316 319 319 318 319 320 319 320 320 319 320 321 321 320 321 319 314 313 315 317 318 318 317 317 317 319 320 321 318 315 312 311 310 308 307 307 306 306 306 306 306 306 305 305 305 305
Wind_Speed
5 5 5 5 5 5 6 6 6 6 6 6 6 6 6 6 7 6 5 5 6 7 6 6 6 6 6 7 8 8 9 10 10 11 14 11 10 13 12 11 11 10 12 11 11 11 12 12 12 12 11 12 12 13 13 13 13 10 6 6 7 7 8 4 6 5 6 8 7 7 7 4 2 5 4 3 8 10 6 6 11 16 11 12 12 18 21 21
6 6 5 5 5 6 6 7 7 7 7 7 7 7 8 8 8 7 7 7 7 8 7 7 7 7 8 8 9 10 12 12 12 15 15 12 12 14 12 13 13 12 14 14 14 14 13 12 13 12 12 12 12 13 13 13 13 10 6 6 8 8 5 6 7 5 7 7 5 4 3 2 3 5 5 6 9 8 7 7 15 18 15 17 16 18 19 22
7 6 6 5 6 6 7 7 7 8 7 8 8 8 9 8 8 8 7 7 8 8 8 8 8 8 8 8 9 12 13 13 15 16 13 10 12 13 12 14 14 14 15 14 12 14 13 11 12 12 13 12 12 13 12 11 11 11 8 6 10 7 6 7 6 6 7 5 5 4 3 3 6 6 4 7 9 6 8 9 14 19 17 17 17 18 20 23
7 6 6 6 6 6 7 7 8 8 8 8 8 9 9 9 9 8 8 8 8 8 8 8 8 8 7 8 9 11 14 14 12 11 9 8 10 11 11 12 13 14 14 14 11 12 12 10 11 12 12 12 12 13 10 10 9 10 9 8 11 6 7 5 4 6 6 6 6 5 4 4 9 7 6 8 8 7 8 7 15 25 21 17 17 18 21 24
6 6 7 6 6 6 6 7 8 8 9 9 9 9 9 9 9 9 8 8 8 8 8 8 8 8 8 8 9 10 11 7 1 7 7 6 8 9 10 11 13 14 16 17 12 12 13 12 12 13 12 10 11 11 9 12 11 8 9 13 16 11 9 5 4 5 6 8 8 8 8 8 9 7 8 11 10 6 10 15 28 32 21 18 18 18 21 22
6 6 7 7 6 6 6 7 8 9 9 9 9 10 10 10 10 9 8 8 8 8 7 8 8 8 8 7 8 10 6 1 3 6 6 4 8 8 8 11 14 17 19 17 11 12 15 13 12 13 11 10 11 10 10 15 13 8 8 13 16 13 10 5 3 4 4 7 9 9 9 9 9 7 11 11 12 5 19 27 30 27 20 21 20 19 19 21
6 7 7 7 7 7 7 7 8 9 10 10 10 10 11 11 10 9 9 8 8 8 7 7 8 8 7 7 8 8 11 10 6 7 7 5 8 7 8 12 16 21 21 14 10 13 15 14 14 13 11 9 11 11 11 14 13 10 9 11 14 11 11 10 7 4 5 8 9 10 9 9 8 8 12 9 10 4 20 26 24 22 22 24 22 20 21 22
7 7 7 7 7 7 8 8 9 10 10 11 11 11 11 11 11 10 9 9 8 8 7 7 7 7 7 6 6 9 15 14 8 8 6 6 7 5 9 13 17 22 19 12 12 14 15 15 16 14 11 9 10 11 11 11 11 12 11 11 13 11 9 11 10 8 9 10 10 11 9 11 11 11 14 8 10 4 22 27 22 20 20 22 21 23 23 22
7 7 7 7 7 8 8 9 10 11 11 11 12 12 12 12 12 11 9 9 8 8 6 6 7 7 7 6 6 8 8 6 8 10 8 6 7 5 10 13 18 21 15 11 13 13 13 14 16 15 11 11 10 9 10 9 8 10 13 14 13 13 12 10 11 11 11 11 10 11 10 13 14 13 13 10 17 7 26 25 21 20 16 17 17 20 22 22
9 7 7 8 8 8 9 10 11 12 13 12 12 12 12 12 12 11 10 9 8 8 6 6 7 6 6 6 7 6 2 3 6 10 9 7 9 8 10 13 17 18 13 11 13 13 14 13 14 15 12 12 11 8 9 10 6 5 10 13 12 14 14 12 12 11 12 11 11 11 10 13 14 12 8 12 22 9 28 25 20 18 14 14 13 14 17 20
10 9 8 8 9 9 9 10 11 13 14 13 13 12 12 13 13 12 11 9 8 7 6 6 7 7 5 6 10 8 1 2 2 5 7 7 11 12 11 13 15 16 13 11 13 13 14 13 10 11 8 7 10 8 9 13 12 9 9 10 11 13 14 15 13 11 10 9 12 13 12 13 14 11 10 17 20 11 23 24 22 15 11 12 11 12 14 17
10 10 9 9 9 10 9 10 11 13 14 14 14 13 12 13 13 13 11 9 8 7 6 6 7 7 5 8 16 13 4 3 4 6 7 8 12 12 12 13 13 14 13 11 12 12 13 11 9 12 6 3 8 7 7 13 15 13 9 8 11 12 13 16 15 14 11 9 13 12 10 11 12 11 14 23 18 10 13 16 19 15 10 11 11 12 16 17
10 11 11 10 10 11 10 10 11 13 14 15 14 13 12 13 13 12 11 9 8 7 6 6 7 6 5 10 12 8 7 7 6 8 9 11 13 12 12 13 13 13 11 9 9 10 12 9 9 13 11 8 8 4 4 8 11 12 10 7 10 9 11 16 16 16 13 11 12 7 6 8 11 14 18 25 19 10 11 11 13 14 10 9 11 14 19 19
10 11 12 11 11 12 12 11 11 12 14 14 13 13 12 12 12 11 10 9 7 7 7 6 7 5 6 11 7 4 8 7 8 10 11 14 14 13 13 13 13 11 9 8 6 7 9 9 9 12 13 14 11 7 6 8 7 8 9 7 7 7 9 14 16 14 12 12 11 5 5 7 11 16 21 25 22 13 10 10 17 17 10 3 8 14 18 20
11 11 12 12 12 12 12 12 12 12 14 13 13 12 12 11 11 10 10 8 7 7 5 5 6 6 8 14 9 9 12 9 10 12 13 16 15 14 14 13 13 11 9 8 6 5 7 8 9 11 12 14 13 9 7 7 6 6 8 7 7 8 9 9 13 13 10 10 10 7 6 8 13 16 21 26 20 15 10 17 26 21 14 7 8 12 15 18
11 12 13 13 13 12 13 13 12 12 13 12 12 12 11 10 10 10 9 7 7 6 3 2 3 5 7 10 8 11 13 12 13 13 14 16 15 14 13 13 13 11 10 10 7 6 8 9 11 12 12 11 9 8 7 6 7 7 7 7 8 9 7 4 13 14 12 8 8 9 9 8 12 16 20 25 18 15 12 19 28 25 22 16 14 14 17 19
12 13 13 13 13 12 13 13 13 12 12 12 12 11 10 9 9 9 8 7 5 3 5 4 2 7 10 7 7 12 14 13 14 15 15 16 15 14 13 13 13 12 11 10 9 7 9 11 10 10 11 9 7 8 7 7 7 7 7 7 8 10 8 5 12 13 12 7 6 11 9 10 15 16 8 16 16 14 11 17 22 22 22 21 20 19 18 18
13 13 14 14 13 12 12 13 12 12 11 11 11 9 9 9 10 10 8 5 3 2 4 6 4 6 11 13 14 14 15 13 14 18 16 16 16 15 14 13 12 12 12 10 11 11 10 11 9 7 8 8 8 8 8 9 8 8 8 6 7 10 9 4 9 10 9 7 7 10 9 11 16 14 3 13 13 11 9 16 19 19 20 19 17 16 15 15
13 13 14 14 13 12 12 12 11 11 10 9 9 8 8 8 9 9 8 6 7 5 3 9 16 6 5 10 16 10 12 13 13 17 18 17 17 15 14 13 12 14 12 9 10 13 11 9 9 7 7 9 10 11 10 12 13 11 10 8 8 8 8 8 6 9 5 5 7 9 9 10 13 13 8 8 12 10 9 17 19 17 17 15 13 10 9 10
13 14 14 14 12 12 11 11 11 11 10 8 6 6 6 6 5 5 6 12 17 16 11 9 22 15 6 7 11 7 12 12 11 16 18 18 17 16 15 14 14 13 11 8 9 13 11 7 8 9 10 12 13 14 14 15 16 14 10 6 8 9 9 10 7 12 7 3 5 8 9 11 12 13 12 8 10 13 12 16 16 14 13 12 11 8 6 6
13 14 14 13 12 11 9 10 10 10 9 6 4 6 5 6 5 1 2 12 21 23 23 17 17 19 13 6 10 12 12 10 11 14 17 18 18 15 15 15 13 10 11 12 10 11 11 7 9 12 13 15 14 14 14 16 16 12 11 7 8 9 7 8 7 9 11 5 4 8 10 11 12 12 13 14 12 11 12 17 18 15 13 12 11 9 7 5
13 14 13 12 11 10 9 9 10 9 8 5 5 7 5 7 6 5 6 10 17 21 25 22 17 19 15 9 8 12 11 11 13 15 17 19 19 15 15 15 12 9 11 13 9 8 9 8 12 14 14 14 14 14 14 16 15 8 7 7 7 7 6 8 9 4 7 5 3 7 10 10 12 13 12 14 14 13 12 17 24 23 19 16 17 18 17 13
14 13 12 11 10 9 8 9 9 9 7 6 7 7 6 9 6 7 8 10 15 18 22 22 20 20 18 14 11 10 10 12 13 17 19 19 20 18 15 13 12 11 11 12 10 8 7 10 15 16 14 13 14 14 11 11 10 5 6 7 7 8 8 7 7 5 3 3 2 5 10 9 11 11 11 14 15 18 21 13 22 26 25 23 24 27 26 24
13 12 11 10 8 8 8 8 7 8 6 4 6 7 8 9 6 7 9 9 11 12 18 21 21 20 20 18 14 14 14 13 13 17 22 18 20 18 14 13 12 11 11 13 14 11 9 14 19 17 14 14 15 13 8 6 5 7 10 10 8 10 11 9 7 5 4 4 2 5 9 8 10 12 10 12 12 16 23 19 14 20 23 23 29 33 30 29
12 11 10 8 7 6 5 4 3 5 5 5 5 4 6 7 4 6 7 7 8 9 15 17 18 18 19 17 15 17 16 14 15 16 22 21 19 15 12 13 11 10 12 15 15 11 12 16 15 14 14 15 13 10 9 8 6 8 11 13 13 13 13 13 11 8 6 5 5 8 8 6 9 13 12 11 11 13 18 19 15 17 21 18 27 35 33 32
12 10 9 7 6 4 1 1 2 1 5 8 5 2 3 4 4 5 5 5 5 6 10 13 13 12 15 17 15 15 13 14 19 17 20 22 19 16 12 10 10 10 13 13 11 7 9 15 10 8 9 10 10 8 10 11 8 7 9 12 15 15 14 14 13 11 7 5 5 8 8 6 7 11 12 13 14 15 15 15 14 15 18 17 23 37 36 34
11 10 8 6 5 3 4 2 3 4 4 3 2 1 3 4 4 4 3 5 4 7 11 10 10 10 14 16 16 14 7 9 19 22 21 21 20 18 13 10 10 10 11 9 8 6 9 15 13 10 9 6 8 9 10 12 9 7 9 11 14 15 16 16 12 9 8 7 8 11 10 8 6 7 10 12 12 14 14 13 14 15 17 19 17 32 35 31
11 10 8 5 5 4 6 7 7 6 3 3 0 2 4 5 4 3 4 4 3 8 10 8 7 8 12 14 18 18 6 3 13 21 24 21 21 19 13 12 11 10 12 10 8 7 9 15 14 11 9 7 8 10 11 12 10 8 11 14 14 12 12 13 10 8 8 8 8 11 11 8 6 6 9 13 12 11 11 10 11 12 14 18 19 23 34 30
11 10 8 5 4 3 5 9 11 9 2 4 4 4 4 5 3 3 5 3 4 7 7 8 9 9 11 13 18 21 12 7 7 16 25 22 20 18 13 14 15 12 14 12 10 9 9 11 12 7 8 8 9 11 12 13 11 9 12 14 11 6 6 8 8 8 8 9 9 10 11 8 6 6 7 9 9 7 7 8 5 5 4 7 15 11 31 32
11 10 8 6 4 1 3 7 7 7 5 5 6 5 4 4 3 4 4 2 4 7 9 9 9 11 13 12 13 17 14 10 7 13 23 21 19 20 15 15 16 12 11 13 12 12 8 10 11 9 10 10 11 11 12 12 9 8 10 10 7 3 5 7 7 7 7 8 10 12 13 10 7 6 6 4 1 6 3 3 6 11 14 14 19 12 18 28
11 10 9 7 7 6 5 4 1 2 5 7 6 4 3 3 4 5 4 2 3 7 10 8 9 13 15 12 11 13 13 11 8 11 16 14 15 16 13 12 11 9 9 9 11 13 13 10 9 8 7 8 10 10 10 10 7 7 7 5 4 4 7 7 7 7 7 7 9 12 14 13 8 5 3 2 5 9 7 6 8 9 12 13 17 17 9 21
11 11 10 8 8 10 9 9 8 4 4 8 7 4 4 3 4 6 3 0 2 6 7 9 10 11 15 14 11 14 12 10 10 11 11 10 10 12 11 9 7 7 8 8 9 12 12 10 11 9 8 10 11 8 9 9 8 8 7 5 5 6 6 7 6 6 7 8 9 12 12 10 6 2 7 7 8 10 8 8 10 9 12 13 14 17 8 13
10 11 11 9 9 12 12 11 12 8 6 8 6 4 5 4 5 7 6 3 3 4 5 10 13 11 13 12 11 14 13 10 12 12 11 12 10 11 14 14 11 9 7 8 9 9 8 11 14 12 9 13 14 8 8 9 9 9 8 7 7 6 5 6 6 6 7 7 9 12 10 7 4 3 10 11 10 11 11 12 14 13 13 14 16 21 18 11
10 11 9 8 9 12 14 15 13 9 6 6 5 5 6 5 5 7 7 6 4 5 3 5 9 8 9 9 10 11 10 10 13 13 11 12 10 9 12 16 17 12 7 8 8 8 8 9 11 10 8 12 15 13 10 8 8 9 8 8 8 7 6 5 5 6 6 4 6 9 7 5 4 1 7 9 11 12 13 13 13 14 15 15 18 21 19 15
8 7 6 6 7 9 14 17 13 10 7 6 6 6 6 5 6 6 6 3 3 5 6 4 4 6 8 8 11 10 10 9 12 13 10 11 10 9 10 13 16 14 9 7 5 7 10 9 8 11 11 12 14 14 14 11 8 8 9 9 8 7 6 4 5 5 3 3 4 6 3 2 3 4 6 8 9 10 11 12 13 13 15 15 17 18 15 14
3 2 4 4 4 5 10 15 14 12 9 7 7 6 6 7 5 2 3 4 2 2 4 5 7 8 7 8 10 11 11 8 9 11 9 11 11 11 11 11 15 16 12 7 5 5 8 8 8 12 13 14 13 13 14 13 7 5 8 9 8 9 8 5 5 5 3 4 4 5 3 4 6 5 7 8 7 8 9 10 13 14 16 16 17 17 14 12
5 2 5 6 5 5 8 12 14 13 9 7 6 6 6 8 5 2 4 6 3 1 2 3 7 8 7 7 7 9 10 7 7 8 8 9 10 12 14 11 14 18 16 11 6 5 6 6 8 11 12 14 16 15 14 14 11 5 5 8 8 9 9 5 4 5 5 6 5 6 7 4 4 2 6 7 6 8 9 9 11 13 15 16 15 15 14 11
6 3 8 7 7 9 10 12 13 11 8 6 6 8 8 5 1 4 6 7 4 1 5 6 4 6 8 7 7 10 10 7 7 7 7 8 8 10 13 12 13 17 19 17 8 3 5 5 7 12 12 12 14 14 11 13 15 11 6 7 6 6 6 6 5 5 6 6 5 7 9 1 3 1 5 5 5 8 9 9 10 12 14 14 14 14 13 11
6 3 6 7 9 11 13 14 13 10 8 6 5 6 8 6 1 3 5 5 5 3 5 7 4 5 7 5 5 8 10 7 7 6 7 6 5 4 6 8 12 15 18 17 10 4 4 4 6 10 11 10 10 9 8 9 13 13 10 8 6 4 4 4 3 4 5 6 5 6 6 1 4 4 4 6 4 6 6 4 5 9 13 14 15 14 13 13
6 4 4 9 8 11 14 14 12 9 7 7 6 6 7 6 1 3 3 3 5 4 5 6 4 3 4 5 7 5 6 6 7 6 6 5 4 4 6 6 7 10 14 15 12 8 6 4 5 6 8 10 7 7 9 9 9 10 9 8 7 5 4 3 2 2 4 4 4 5 3 2 1 3 4 7 5 4 4 4 4 7 12 14 14 14 14 15
6 5 4 9 8 12 16 12 9 8 6 6 9 9 4 2 2 3 2 3 5 5 5 6 6 4 4 5 5 2 3 5 5 6 5 3 1 2 5 6 5 5 9 12 11 8 6 5 5 6 6 8 9 10 12 12 10 9 8 9 8 7 5 5 3 1 2 4 4 3 1 2 1 3 4 7 6 5 4 5 6 9 12 13 13 12 13 15
7 4 4 11 11 14 15 9 6 7 7 6 6 4 3 2 3 1 0 4 5 6 5 5 6 5 5 6 5 3 3 5 4 5 6 4 3 2 3 7 7 6 5 7 10 8 3 3 5 7 6 9 10 9 11 14 14 11 10 10 9 8 7 7 4 1 2 5 3 1 2 2 2 6 7 7 9 9 9 9 9 11 13 15 15 15 15 16
8 4 4 11 13 14 11 6 5 7 8 4 1 3 2 2 6 3 1 5 5 5 5 4 5 5 5 6 5 5 4 3 4 5 4 1 2 2 3 6 8 7 3 5 7 4 3 2 6 6 6 9 10 6 8 14 14 11 9 9 9 9 8 6 3 2 2 5 3 0 1 0 3 5 4 6 11 13 13 12 11 12 14 15 16 15 15 15
4 6 8 11 14 11 7 5 4 6 7 2 1 6 3 2 5 3 2 3 4 4 4 3 5 4 5 5 4 5 4 2 5 7 2 3 3 7 7 5 6 5 2 2 5 3 1 4 6 6 6 8 7 5 7 10 8 7 7 8 11 8 3 3 2 4 2 5 2 0 1 1 2 4 5 7 11 13 12 12 12 13 13 14 13 12 13 14
2 8 9 12 14 11 7 6 4 5 6 3 2 6 5 3 5 4 5 4 3 3 2 3 5 4 4 5 4 5 6 4 5 5 1 4 4 7 8 6 5 2 3 3 7 6 3 2 3 6 6 5 4 3 3 2 4 5 5 6 8 5 4 3 1 2 1 2 2 2 2 4 4 7 9 9 10 10 10 12 13 13 13 12 11 11 12 13
2 4 6 9 14 13 10 11 11 7 4 4 3 6 7 6 4 3 5 5 4 3 2 3 5 4 4 5 5 6 7 7 7 6 2 4 3 3 7 12 10 3 3 4 6 3 3 3 3 5 2 1 3 4 0 1 4 6 8 11 12 13 11 4 3 2 2 3 4 2 6 7 6 9 9 9 10 9 9 11 12 12 12 11 11 11 12 13
2 2 4 7 8 10 10 11 12 6 0 3 3 2 6 6 4 4 3 5 5 4 4 5 5 4 4 4 5 5 6 8 8 7 4 4 4 2 7 13 13 6 2 3 5 1 3 3 4 5 4 1 2 6 3 3 4 7 10 12 14 17 15 9 6 4 3 2 2 2 8 9 7 7 8 7 8 7 8 11 12 11 11 11 11 12 13 14
4 4 6 7 4 5 6 8 8 3 0 3 2 1 3 5 4 4 3 5 7 4 2 5 6 7 6 4 4 4 5 8 7 6 4 3 6 6 6 7 11 8 2 3 3 3 2 2 3 4 6 3 4 8 6 5 7 9 13 14 14 15 13 10 9 9 5 1 3 6 9 9 8 7 7 7 7 8 9 11 11 11 12 12 13 14 15 16
6 6 5 8 4 1 2 1 4 4 2 2 1 1 3 4 3 3 2 4 6 4 4 5 5 7 7 4 4 4 4 5 4 4 5 5 5 4 4 4 11 12 4 6 6 2 3 1 2 3 5 4 5 7 8 4 9 10 15 16 13 9 7 8 11 10 6 3 5 10 11 10 7 6 7 8 9 10 11 12 12 14 14 14 14 16 17 18
5 6 2 4 3 3 3 2 2 3 2 2 1 2 2 2 2 3 3 3 3 4 4 4 5 5 4 4 4 2 1 2 2 3 4 4 2 1 1 1 4 8 2 4 2 3 0 1 2 2 3 3 1 3 5 3 10 13 16 16 13 10 7 9 11 8 4 3 7 10 9 7 5 7 10 11 11 12 13 14 14 15 15 15 16 17 18 18
8 10 8 6 1 3 3 3 3 2 2 2 2 3 1 2 3 3 3 3 3 3 3 4 5 3 4 6 4 1 5 3 3 2 1 1 1 2 1 4 7 6 3 3 3 3 2 2 2 0 3 2 2 3 1 3 7 13 17 15 13 11 8 8 8 8 7 6 1 4 5 4 4 7 11 12 13 14 15 15 14 15 16 17 17 17 18 18
9 11 9 5 1 1 3 3 4 3 2 2 2 4 2 3 3 3 1 4 5 6 4 4 3 2 4 5 3 2 4 5 6 6 4 1 1 2 2 3 5 4 3 0 1 1 1 2 3 2 2 1 1 0 1 1 2 5 9 10 10 9 8 8 9 10 11 9 3 2 4 5 6 8 9 10 12 13 15 15 15 14 15 16 17 17 17 17
Wind_Direction
267 271 275 280 279 279 280 278 277 275 279 281 279 277 275 277 279 281 283 286 286 286 291 296 300 303 307 307 306 301 293 285 272 263 252 227 208 227 234 233 233 224 212 191 182 186 191 204 214 215 218 224 223 233 235 223 230 235 233 243 248 242 239 285 14 7 18 62 63 48 34 327 334 9 331 328 248 228 243 233 94 81 94 98 116 141 148 149
271 274 275 280 280 279 279 279 283 282 283 284 280 280 277 277 278 278 281 282 283 287 293 300 304 307 312 311 313 311 301 299 288 266 247 229 223 231 229 227 225 216 202 183 181 189 195 201 206 207 213 223 216 222 231 213 217 235 233 236 241 246 273 354 15 354 18 39 24 36 52 357 338 337 327 309 265 218 221 202 114 97 95 99 130 146 147 151
271 273 273 276 280 281 279 280 284 284 286 286 282 281 279 278 276 277 278 280 283 286 292 297 300 304 309 311 315 313 310 312 296 271 249 233 227 223 223 222 214 208 197 182 185 196 200 199 199 204 213 226 219 216 222 203 202 227 237 243 237 252 331 360 356 345 7 10 349 348 43 22 292 304 316 300 301 277 256 219 139 117 111 116 141 152 155 158
271 271 272 273 278 282 284 286 286 287 288 285 285 282 281 280 278 279 278 280 282 283 290 291 294 299 303 310 313 317 322 318 291 257 240 228 217 211 217 217 205 199 184 170 187 207 208 207 201 204 218 230 223 217 218 203 199 216 224 244 247 273 336 332 339 353 351 334 335 312 315 309 285 330 330 291 297 278 288 258 147 125 125 139 154 160 163 165
269 271 274 275 277 278 281 285 285 286 286 284 285 284 284 284 281 283 281 282 282 282 287 285 290 292 297 307 308 318 323 321 232 187 202 205 205 210 215 210 194 183 171 164 182 214 216 215 208 207 225 239 226 217 220 218 219 229 230 247 260 286 316 329 353 345 340 315 303 281 275 288 299 327 291 275 284 285 49 85 124 125 137 155 161 166 170 172
262 267 272 275 276 279 279 281 283 282 282 283 285 286 287 285 284 286 285 287 285 285 286 285 291 289 295 299 301 313 295 268 105 175 204 203 208 220 214 202 184 170 164 165 183 212 215 220 215 210 223 240 238 225 220 224 226 242 244 248 259 273 280 294 330 323 338 301 288 282 276 291 304 300 271 266 278 298 81 100 124 128 146 159 164 173 179 178
258 264 273 278 279 283 284 281 281 280 281 282 282 284 284 284 284 284 284 286 285 287 290 289 291 289 293 290 293 288 248 258 279 224 228 220 215 231 211 195 182 169 164 176 205 208 209 218 217 215 222 231 242 234 223 227 226 236 253 253 257 263 261 269 286 296 305 288 280 281 281 285 281 275 270 262 274 280 101 111 128 135 146 155 167 175 184 185
261 268 276 282 286 290 290 287 285 282 282 281 281 281 280 282 281 281 283 283 284 288 292 292 292 294 292 290 295 272 249 253 244 217 233 221 219 235 200 187 181 174 172 195 214 206 207 215 215 215 222 228 238 236 227 233 230 232 248 257 262 272 268 268 276 275 272 269 267 268 265 264 260 263 272 276 282 254 111 112 124 138 148 152 168 176 183 189
265 272 278 283 288 291 293 293 289 285 283 280 280 280 280 282 281 282 282 281 286 287 293 293 288 292 292 298 305 285 258 222 202 218 240 233 234 227 191 184 182 180 185 207 213 208 208 214 218 219 230 248 260 255 233 230 230 229 240 248 255 263 263 259 258 258 258 257 257 258 252 252 249 251 263 263 264 219 113 116 128 135 149 159 174 180 183 186
268 271 278 283 286 291 294 293 290 286 283 281 280 280 280 282 282 284 283 284 288 288 296 289 282 284 286 303 290 276 252 191 222 233 244 248 228 203 184 185 180 183 196 209 209 208 209 215 220 227 248 267 275 273 241 235 244 246 248 252 257 261 262 258 252 250 254 256 254 255 257 256 247 243 243 243 249 185 114 122 133 134 157 171 180 188 191 189
273 275 280 287 290 295 295 293 291 287 284 282 280 281 282 282 282 283 283 286 287 290 293 279 279 274 266 281 263 253 182 174 211 213 238 239 208 187 175 183 177 186 205 209 208 209 215 224 228 234 247 254 258 260 245 246 257 263 263 268 267 266 266 262 259 254 252 257 255 255 259 257 249 242 240 246 242 168 127 133 137 142 162 174 182 192 203 200
277 281 284 291 295 297 297 294 291 287 285 283 281 282 283 282 282 281 284 286 286 289 286 273 271 269 273 273 256 245 231 223 194 180 203 197 190 180 171 186 187 197 215 211 209 216 223 233 241 243 245 244 248 257 248 243 252 259 262 273 266 262 259 250 247 244 239 244 247 245 250 249 243 236 243 253 243 178 164 155 143 149 162 176 182 197 208 207
276 281 286 291 295 297 299 296 290 287 284 282 282 284 283 282 281 282 284 284 286 283 275 268 261 260 269 269 261 242 226 230 205 182 187 182 181 181 181 193 198 208 225 220 215 220 227 239 247 248 258 257 246 295 319 245 245 254 251 257 262 262 252 238 230 227 227 236 235 232 253 245 237 225 229 250 245 190 189 178 145 140 152 180 179 200 210 206
277 282 286 290 294 298 301 298 291 286 282 281 284 283 281 281 281 282 283 280 281 276 266 261 252 235 238 253 263 218 206 199 195 194 190 185 184 188 193 196 200 212 225 230 233 218 224 241 251 257 260 253 259 309 307 250 243 251 244 241 246 258 258 237 214 203 213 225 210 192 256 259 260 232 215 239 240 199 187 144 124 129 134 177 187 204 213 207
277 281 286 290 296 299 303 300 292 285 280 282 283 283 282 282 285 283 281 278 272 270 263 247 231 206 240 261 254 222 213 198 201 201 190 189 188 190 194 196 202 213 219 224 240 225 225 235 239 249 249 247 261 282 264 238 231 232 240 238 224 239 263 236 182 179 210 215 191 195 254 257 264 247 216 225 222 193 182 120 121 141 157 199 227 225 233 223
276 279 285 291 297 300 301 297 291 284 281 284 283 284 286 286 288 281 277 277 269 267 232 198 254 235 259 274 237 214 216 213 211 199 191 193 193 192 190 195 203 211 215 218 228 228 226 229 232 238 243 240 239 246 247 238 226 213 224 242 232 226 249 209 157 178 209 195 176 204 252 261 257 261 228 210 195 189 186 125 128 147 162 192 217 221 241 243
279 282 285 291 298 300 299 294 290 284 281 285 284 287 292 290 285 276 274 267 257 245 188 171 304 255 248 259 230 219 215 211 206 196 194 195 196 196 188 193 203 205 209 212 219 226 217 219 228 233 240 242 226 227 237 235 225 207 211 240 252 243 246 200 161 185 204 189 197 207 232 266 269 284 247 177 175 204 196 132 134 151 164 186 194 197 219 234
282 285 288 293 298 300 297 294 288 284 284 287 289 294 294 286 278 266 260 248 211 179 220 213 204 240 244 232 231 228 210 201 197 194 195 194 200 202 191 195 203 197 203 209 212 216 208 207 219 224 226 230 227 223 221 230 229 208 202 214 251 259 266 229 153 162 176 173 222 231 227 254 268 282 254 154 168 231 217 141 149 169 174 184 184 190 205 209
287 289 292 294 297 297 294 292 288 284 286 288 294 299 293 287 280 264 245 213 186 182 241 197 187 225 324 210 218 218 183 180 184 190 193 192 198 206 198 198 203 197 202 205 198 203 202 200 214 222 222 218 222 224 225 234 237 230 220 214 234 250 255 246 156 132 154 181 220 247 245 249 269 271 250 176 166 223 221 152 159 176 176 186 182 184 207 210
289 291 293 294 296 295 292 291 287 286 289 291 299 297 291 293 279 243 206 212 217 225 259 211 193 228 299 179 189 150 146 165 174 184 190 190 192 203 202 197 201 202 209 209 187 194 201 206 215 217 224 221 219 227 236 243 247 262 276 261 244 240 237 235 171 141 151 212 243 258 262 258 269 272 270 252 199 206 195 158 163 173 175 191 182 178 206 212
290 292 293 293 294 293 290 286 282 286 290 291 289 269 280 321 322 321 209 232 235 238 255 251 215 231 252 212 173 151 155 175 183 185 184 185 189 197 197 195 202 200 214 220 196 190 203 217 224 219 226 229 225 225 237 252 258 279 299 290 255 246 249 252 224 169 149 148 257 268 269 262 262 269 275 275 258 226 187 160 164 176 188 193 177 181 192 187
292 293 292 292 295 294 287 282 281 285 284 275 260 245 273 330 336 327 307 273 260 247 245 247 238 234 237 237 190 171 185 190 192 192 178 179 189 195 188 190 210 202 206 222 204 188 205 223 230 225 227 231 235 229 228 246 256 273 279 264 263 265 262 257 252 204 139 150 231 261 270 267 259 258 258 263 268 263 228 174 164 176 190 187 174 176 183 192
293 292 292 292 296 294 285 285 283 281 277 262 245 232 278 316 315 311 300 281 275 256 236 229 231 230 223 222 204 189 210 204 198 190 175 178 193 200 193 188 214 214 203 216 211 200 204 218 226 228 230 230 236 236 231 245 247 243 253 246 250 259 262 256 231 185 187 259 283 277 279 275 267 261 249 249 252 265 268 224 174 180 189 187 183 186 192 197
293 292 293 294 299 296 289 290 286 290 285 254 255 245 275 303 302 313 300 272 275 255 232 220 217 221 217 215 206 200 218 223 215 188 173 185 198 202 208 198 209 222 210 211 216 218 221 223 217 211 219 226 228 226 227 257 250 226 239 246 249 250 255 263 254 226 238 286 307 267 275 271 265 265 255 252 238 245 264 260 217 204 211 201 188 194 202 198
292 291 293 299 302 297 299 308 318 336 314 268 301 277 268 296 288 312 308 265 259 237 225 212 207 217 211 205 201 202 215 226 231 198 171 187 202 197 210 209 207 224 218 213 220 221 232 245 229 205 210 218 222 218 206 223 248 237 227 233 250 260 264 270 283 281 244 226 204 215 249 258 249 251 247 248 243 236 247 253 245 228 232 220 182 185 199 197
289 289 294 300 303 294 305 32 106 322 274 252 280 259 249 301 285 299 306 263 251 197 187 182 185 195 189 188 189 196 215 222 226 215 180 186 206 205 207 208 204 224 225 216 225 220 233 255 246 220 225 204 207 227 213 215 236 246 230 223 234 251 267 271 282 288 266 257 252 231 247 266 249 249 244 236 233 235 236 237 243 239 242 239 185 174 187 192
288 287 294 300 306 273 220 221 185 216 271 239 218 264 274 288 279 291 277 253 241 167 153 156 171 176 180 185 181 186 218 214 209 217 201 186 201 216 219 211 201 221 237 228 226 207 217 243 229 211 234 208 204 231 218 216 227 238 242 235 228 231 242 248 253 268 274 282 281 263 263 274 268 267 271 266 245 232 231 224 225 230 240 254 213 174 179 189
287 284 293 297 297 275 241 244 221 220 331 14 242 308 297 273 279 293 257 244 195 154 145 140 146 163 180 184 185 195 226 217 191 205 207 191 192 212 224 227 220 210 223 237 239 204 200 239 233 195 214 226 217 233 223 217 229 238 242 246 244 240 247 255 254 256 262 263 264 259 255 259 262 263 274 280 267 242 241 241 231 223 224 252 251 191 175 183
286 283 293 290 269 291 275 256 230 217 273 344 303 290 276 266 274 267 255 243 159 150 142 138 140 160 179 175 189 206 217 234 206 185 194 194 192 211 228 234 239 226 215 227 244 231 197 226 244 203 209 239 226 231 231 219 225 237 243 254 267 281 287 281 268 256 255 249 250 253 253 259 261 255 257 264 274 272 257 260 292 349 0 312 297 217 173 179
286 285 291 280 239 242 293 272 252 236 248 291 289 266 256 264 258 234 219 200 185 163 136 143 163 175 183 176 189 211 213 224 230 177 184 191 193 214 234 232 240 247 225 216 230 255 236 205 230 227 210 230 235 232 234 227 226 234 243 256 266 253 252 262 260 261 263 249 247 250 250 258 259 259 264 241 331 24 4 315 21 17 11 12 352 355 157 172
285 287 284 270 236 219 231 236 249 314 275 265 257 235 236 254 249 228 179 162 222 156 136 158 181 175 183 193 191 198 210 218 211 181 182 187 189 206 227 227 229 245 241 219 211 242 251 215 215 239 219 228 244 236 233 230 216 223 239 247 244 222 223 237 238 234 247 252 254 250 243 246 249 263 294 165 95 53 40 7 20 14 3 12 359 3 122 163
287 285 277 270 247 222 208 181 155 145 228 229 220 213 232 223 225 233 199 153 204 161 169 183 177 177 187 203 200 181 197 211 189 185 187 188 193 198 210 216 204 211 230 229 206 213 236 228 209 215 220 231 243 234 225 222 204 213 228 215 230 240 217 224 230 220 236 245 250 258 252 246 246 338 32 59 67 47 40 13 5 2 5 11 356 359 57 147
286 281 273 268 248 223 208 190 183 191 198 198 206 228 237 223 214 222 218 218 146 132 222 188 164 186 194 200 211 183 188 203 179 186 199 193 200 201 205 216 210 205 216 225 222 206 215 233 218 199 194 214 230 235 220 213 201 207 219 209 217 237 229 226 230 232 247 246 247 261 258 245 245 51 50 56 58 41 34 19 6 3 7 17 20 22 41 76
282 280 275 262 247 222 205 202 203 203 186 184 215 227 220 231 229 215 218 223 137 104 244 198 152 192 207 218 233 189 184 210 184 184 201 194 203 207 202 215 218 216 222 226 232 217 213 233 227 209 191 195 213 234 238 225 207 204 221 229 221 228 239 234 229 237 252 274 293 283 266 246 244 98 64 61 61 47 33 21 9 7 8 17 35 40 44 48
277 279 275 244 235 218 201 203 201 187 180 199 228 219 205 233 236 221 232 236 135 153 203 202 181 217 215 231 248 210 191 213 189 185 203 200 205 211 199 208 217 218 221 220 225 224 226 236 221 211 210 199 202 224 240 239 221 203 211 228 229 232 239 238 256 269 277 305 303 282 288 52 122 113 63 47 57 56 41 27 15 11 11 15 29 36 36 42
254 307 283 225 203 201 192 197 190 175 184 213 226 219 213 232 233 221 307 343 20 207 195 180 207 228 214 213 238 217 191 197 198 194 205 206 207 211 206 201 207 214 221 218 204 205 226 244 223 204 211 220 212 211 229 239 236 211 210 221 227 233 238 240 254 264 264 265 259 247 246 103 125 116 67 52 53 55 44 30 22 17 19 23 27 27 26 35
202 184 259 246 219 210 188 184 178 172 195 224 225 229 232 235 229 77 8 338 341 306 281 230 204 217 220 208 217 204 178 173 201 209 209 208 205 204 209 206 199 207 220 228 226 202 216 251 243 217 213 224 221 211 218 233 238 234 223 226 224 225 234 240 243 238 232 242 250 245 235 173 153 153 73 57 41 46 39 25 27 31 28 28 31 28 27 38
193 207 258 239 200 196 187 177 173 178 204 228 234 249 263 266 270 54 18 338 324 243 257 262 222 211 222 216 201 192 185 177 188 211 222 209 196 197 209 210 199 203 212 219 225 212 212 241 245 231 220 214 216 216 215 222 230 237 242 239 232 224 224 221 225 239 239 239 245 246 244 243 43 53 92 71 41 53 43 15 20 41 43 35 33 27 23 37
186 234 244 194 171 179 181 174 174 186 210 226 234 243 257 268 341 43 16 331 304 279 259 270 273 236 231 253 246 198 191 191 183 211 233 206 194 233 244 219 200 201 206 210 213 193 201 244 246 232 223 210 209 216 220 214 217 230 242 242 239 242 242 227 221 238 244 248 256 255 253 24 23 360 76 89 76 73 70 43 25 44 53 50 44 39 37 45
197 246 197 159 163 173 173 170 176 197 212 223 243 232 230 246 191 94 27 303 281 287 282 284 289 249 230 265 272 227 192 197 192 213 234 215 203 240 263 259 224 210 208 214 219 195 179 212 243 236 224 220 214 210 226 225 205 211 227 231 230 231 236 236 224 239 253 259 263 264 274 72 5 324 70 103 115 115 113 110 82 57 59 58 50 46 50 58
207 251 176 157 170 167 163 168 183 208 214 219 251 248 229 329 36 110 125 255 269 279 285 298 304 305 306 287 273 249 215 226 218 216 229 244 219 220 266 291 289 245 216 216 223 213 187 186 221 241 227 228 227 207 217 234 225 211 211 219 230 230 226 228 222 230 261 256 256 259 257 94 353 346 74 100 102 100 100 94 77 58 55 56 50 43 48 54
233 256 173 167 175 163 162 181 193 207 222 215 253 278 69 34 300 316 138 208 231 252 253 278 291 296 311 300 297 312 268 252 242 226 230 230 161 120 337 322 303 279 247 231 226 215 197 191 222 236 228 239 247 220 217 236 235 226 217 216 226 231 235 236 225 221 247 241 255 351 108 128 18 23 47 72 74 65 58 64 64 52 49 47 39 33 39 47
237 237 183 172 178 174 178 217 204 207 229 210 300 306 95 177 239 244 251 208 202 226 232 251 275 278 279 277 293 303 285 292 285 265 263 246 101 48 334 322 312 303 298 274 252 196 146 208 234 239 228 237 259 283 262 245 235 229 226 222 224 228 241 245 189 127 243 245 241 206 106 90 31 45 67 85 81 68 52 51 54 48 44 40 32 28 33 40
217 192 198 186 182 185 204 235 206 216 230 190 308 255 222 259 251 231 254 223 192 212 234 248 254 250 259 275 299 285 264 289 275 265 253 106 44 338 296 265 302 332 41 343 322 348 182 216 222 235 230 220 234 278 269 249 239 233 231 239 242 240 276 322 72 110 223 257 251 210 77 106 92 84 95 93 86 79 64 56 55 50 42 35 30 28 30 34
195 175 198 196 188 193 214 235 252 258 231 204 274 248 217 238 251 267 310 290 238 237 251 273 274 271 270 277 292 273 260 259 259 267 298 102 64 341 308 287 292 334 67 342 331 342 309 248 227 240 240 220 227 254 242 249 291 280 281 296 289 311 27 48 70 77 285 328 53 117 140 138 112 75 66 64 66 68 64 59 55 50 45 36 31 32 34 36
253 172 188 188 193 207 225 239 248 259 227 186 225 237 225 220 208 237 286 273 257 268 273 273 281 289 281 272 276 271 261 254 248 250 242 93 74 329 336 338 315 289 67 323 304 355 20 339 297 277 277 168 262 291 17 108 310 318 350 9 8 6 15 56 97 58 50 26 19 132 144 134 107 71 58 53 53 51 46 48 47 44 41 34 33 36 38 40
234 201 189 177 190 209 224 234 233 240 200 173 190 239 242 236 192 168 221 257 245 237 263 272 264 262 268 269 277 287 282 272 263 253 229 121 88 341 14 2 320 274 143 303 284 71 49 320 292 298 307 158 248 299 339 68 8 7 20 24 25 18 16 37 61 53 85 78 312 193 143 130 113 86 71 60 57 54 46 45 42 38 35 31 33 39 38 38
220 257 217 199 202 199 211 228 216 195 231 211 197 10 258 250 228 176 182 254 244 204 220 262 250 243 247 243 251 265 277 282 282 276 272 89 65 5 17 12 318 290 166 59 16 89 130 275 345 350 313 327 16 330 329 66 61 42 44 42 34 26 24 38 45 32 25 10 202 170 135 110 97 88 77 65 62 65 60 51 42 38 35 29 31 36 35 33
247 282 216 197 218 157 118 156 171 167 190 217 208 219 238 250 246 222 204 237 246 218 197 230 241 238 240 246 258 255 255 283 308 331 341 33 62 20 8 357 324 321 5 57 25 44 146 236 39 47 298 311 36 335 317 70 92 62 52 55 52 37 32 44 46 40 23 27 93 108 101 86 77 75 74 68 65 66 63 54 43 36 32 29 30 32 29 29
255 298 271 216 222 112 100 97 159 174 160 157 173 172 222 241 213 244 244 208 240 250 218 238 259 248 260 281 271 276 27 10 348 2 0 13 86 121 81 176 284 307 347 100 359 315 217 155 80 81 270 264 161 281 309 75 99 72 50 48 51 48 50 48 36 29 24 48 86 100 95 83 74 72 71 63 57 57 54 48 41 33 28 28 31 29 25 26
262 288 288 279 277 115 157 190 179 177 161 181 194 151 172 238 189 215 270 236 225 246 250 273 275 265 299 299 279 18 52 32 322 306 318 2 161 195 232 197 211 259 287 157 192 264 246 163 111 114 268 259 227 256 299 105 102 71 45 32 36 39 49 63 49 24 4 353 44 128 100 85 94 85 72 60 52 51 45 39 36 31 29 29 29 27 23 23
284 293 281 273 276 194 222 193 174 189 157 131 140 134 157 251 195 149 292 269 215 193 219 268 305 318 299 291 284 13 24 347 327 321 303 291 150 214 258 225 217 258 306 217 189 241 230 190 148 166 265 264 189 236 61 157 144 69 37 22 27 32 42 67 61 33 12 359 6 91 69 65 75 74 68 57 50 49 43 36 31 27 27 29 28 26 24 22